User: anonymous   Login
Location: Unspecified
(0.0000°N, 0.0000°E)
Time: 10:48:31
(UTC+00:00)
Language:

ODIN - Orbit

View from above orbital plane
View from above orbital plane
View from above satellite
View from above satellite

Ground track
Ground track

The orbit data is extracted from the following two-line orbital elements,

1 26702U 01007A   18200.59286926 +.00000899 +00000-0 +63102-4 0  9995
2 26702 097.5909 217.9256 0012314 130.0424 230.1886 15.07619954950914
Epoch (UTC): 19 July 2018 14:13:43
Eccentricity: 0.0012314
inclination: 97.5909°
perigee height: 535 km
apogee height: 552 km
right ascension of ascending node: 217.9256°
argument of perigee: 130.0424°
revolutions per day: 15.07619954
mean anomaly at epoch: 230.1886°
orbit number at epoch: 95091

The dashed part of the orbit path shows where the satellite is in the earth's shadow,  

DLR